Find Starlink 34655

NORAD ID: 65027 Int'l Des: 2025-161 Owner: SPXS Country: US Constellation: starlink operational
LEOCIRCULAR

当前视图

正在加载3D地球...

About Starlink 34655

Starlink 34655 (NORAD 65027) is a starlink constellation satellite (v2 mini) launched Jul 30, 2025 by SPXS of US. It operates in LEO, CIRCULAR orbit with a mass of 575.00 kg.

即将过境

Passes for default location (London). Set your location on the main map for personalized predictions.

高度历史

Loading altitude history...

两行轨道根数

1 65027U 25161N 26236.41663478 .00014741 00000-0 44655-3 0 9997
2 65027 53.1560 234.1314 0001215 85.2415 274.8726 15.34399511 61020
Epoch: Aug 24, 2026 • Age: 17 hours

当前状态

高度 481.1 km
远地点 / 近地点 N/A
速度 7.62 km/s
星下点 -51.17°S, 146.7°E
发射日期 Jul 30, 2025
运行时间 1 year
类型 internet

技术详情

分类 Payload
质量 575.00 kg
干质量 530.00 kg
总质量 575.00 kg
长度 0.30 m
直径 4.10 m
跨度 29.00 m
形状 Box + pan
制造商 SPXS
平台类型 Starlink V2MO
阶段状态 In Orbit
所有者/国家 SPXS/US

Most Searched